Date String (YYYY-MM-DD hh:mm:ss) UTC,Instrument flags,Ambient pressure (hPa),Sample flow (lpm),Bypass flow (lpm),Sample temperature (°C),Ambient temperature (°C),ASC tube jacket temperature (°C),LED temperature (°C),Box temperature (°C),Sample RH (%),Span deviation,Mass concentration (μg/m³),Mass concentration (μg/m³),Mass concentration (μg/m³)
DateTimeUTC,F1_M11,P_M11,Q1_M11,Q2_M11,T1_M11,T2_M11,T3_M11,T4_M11,T5_M11,U1_M11,ZSPAN_M11,X0_M11,X2_M11,X1_M11
2022-07-06 05:00:00,,0827.2,5.00,0.00,29.6,26.8,00.0,38.3,31.3,25.9,0000.0,0002.85,0001.25,0001.02
2022-07-06 05:01:00,,0827.2,4.99,0.00,29.5,27.0,00.0,38.3,31.2,26.1,0000.0,0003.45,0001.29,0001.02
2022-07-06 05:02:00,,0827.2,5.00,0.00,29.4,27.1,00.0,38.2,31.2,26.4,0000.0,0003.58,0001.33,0001.02
2022-07-06 05:03:00,,0827.2,5.01,0.00,29.4,27.3,00.0,38.2,31.2,26.8,0000.0,0003.62,0001.35,0001.01
2022-07-06 05:04:00,,0827.2,5.00,0.00,29.4,27.5,00.0,38.2,31.3,26.7,0000.0,0003.68,0001.38,0001.02
2022-07-06 05:05:00,,0827.3,5.00,0.00,29.4,27.7,00.0,38.2,31.3,26.4,0000.0,0003.65,0001.38,0001.02
2022-07-06 05:06:00,,0827.2,5.00,0.00,29.4,27.9,00.0,38.2,31.3,26.2,0000.0,0003.76,0001.41,0001.02
2022-07-06 05:07:00,,0827.2,5.00,0.00,29.4,28.0,00.0,38.3,31.4,26.3,0000.0,0003.97,0001.48,0001.03
2022-07-06 05:08:00,,0827.2,5.00,0.00,29.5,28.1,00.0,38.3,31.4,26.0,0000.0,0003.59,0001.46,0001.02
2022-07-06 05:09:00,,0827.3,4.99,0.00,29.5,28.2,00.0,38.3,31.4,26.1,0000.0,0003.84,0001.48,0001.03
2022-07-06 05:10:00,,0827.3,4.99,0.00,29.5,28.3,00.0,38.3,31.5,26.3,0000.0,0005.58,0001.52,0001.04
2022-07-06 05:11:00,,0827.3,5.01,0.00,29.5,28.4,00.0,38.3,31.5,26.8,0000.0,0006.33,0001.63,0001.05
2022-07-06 05:12:00,,0827.3,5.00,0.00,29.6,28.5,00.0,38.3,31.6,26.5,0000.0,0005.99,0001.68,0001.07
2022-07-06 05:13:00,,0827.4,5.01,0.00,29.6,28.6,00.0,38.3,31.6,26.0,0000.0,0007.15,0001.73,0001.09
2022-07-06 05:14:00,,0827.4,4.99,0.00,29.6,28.6,00.0,38.3,31.6,25.8,0000.0,0007.74,0001.75,0001.10
2022-07-06 05:15:00,,0827.4,4.99,0.00,29.7,28.7,00.0,38.4,31.7,26.2,0000.0,0008.01,0001.80,0001.09
2022-07-06 05:16:00,,0827.4,5.00,0.00,29.7,28.7,00.0,38.4,31.7,26.7,0000.0,0008.58,0001.84,0001.11
2022-07-06 05:17:00,,0827.4,5.00,0.00,29.7,28.8,00.0,38.4,31.7,26.9,0000.0,0009.00,0001.83,0001.12
2022-07-06 05:18:00,,0827.4,5.01,0.00,29.8,28.5,00.0,38.4,31.7,26.8,0000.0,0008.90,0001.80,0001.13
2022-07-06 05:19:00,,0827.3,4.99,0.00,29.7,27.5,00.0,38.3,31.6,26.8,0000.0,0008.79,0001.81,0001.14
2022-07-06 05:20:00,,0827.3,5.01,0.00,29.7,27.0,00.0,38.3,31.5,27.0,0000.0,0008.92,0001.80,0001.16
2022-07-06 05:21:00,,0827.3,5.00,0.00,29.6,26.9,00.0,38.3,31.3,27.1,0000.0,0008.02,0001.75,0001.16
2022-07-06 05:22:00,,0827.2,4.98,0.00,29.5,26.9,00.0,38.3,31.2,27.2,0000.0,0007.53,0001.66,0001.15
2022-07-06 05:23:00,,0827.3,5.01,0.00,29.5,27.1,00.0,38.3,31.2,27.3,0000.0,0007.43,0001.60,0001.14
2022-07-06 05:24:00,,0827.2,5.00,0.00,29.4,27.3,00.0,38.3,31.2,26.9,0000.0,0006.28,0001.57,0001.14
2022-07-06 05:25:00,,0827.2,5.00,0.00,29.4,27.5,00.0,38.3,31.2,26.7,0000.0,0005.39,0001.54,0001.15
2022-07-06 05:26:00,,0827.2,5.00,0.00,29.4,27.6,00.0,38.3,31.3,26.9,0000.0,0004.93,0001.52,0001.16
2022-07-06 05:27:00,,0827.2,4.99,0.00,29.4,27.8,00.0,38.3,31.3,26.9,0000.0,0003.99,0001.50,0001.15
2022-07-06 05:28:00,,0827.2,5.00,0.00,29.4,27.9,00.0,38.3,31.4,26.9,0000.0,0003.19,0001.53,0001.15
2022-07-06 05:29:00,,0827.2,5.00,0.00,29.5,28.1,00.0,38.3,31.4,27.2,0000.0,0003.28,0001.54,0001.14
2022-07-06 05:30:00,,0827.2,4.99,0.00,29.5,28.2,00.0,38.3,31.4,27.2,0000.0,0003.27,0001.56,0001.15
2022-07-06 05:31:00,,0827.2,4.99,0.00,29.5,28.3,00.0,38.3,31.5,26.9,0000.0,0002.74,0001.59,0001.13
2022-07-06 05:32:00,,0827.2,5.01,0.00,29.5,28.4,00.0,38.3,31.5,26.9,0000.0,0002.90,0001.67,0001.14
2022-07-06 05:33:00,,0827.2,5.00,0.00,29.6,28.5,00.0,38.3,31.5,27.0,0000.0,0003.05,0001.71,0001.14
2022-07-06 05:34:00,,0827.2,5.00,0.00,29.6,28.5,00.0,38.3,31.6,26.8,0000.0,0003.20,0001.72,0001.13
2022-07-06 05:35:00,,0827.2,5.01,0.00,29.6,28.6,00.0,38.3,31.6,26.7,0000.0,0003.29,0001.75,0001.12
2022-07-06 05:36:00,,0827.2,5.01,0.00,29.7,28.7,00.0,38.4,31.7,25.9,0000.0,0003.32,0001.75,0001.11
2022-07-06 05:37:00,,0827.2,5.00,0.00,29.7,28.7,00.0,38.4,31.7,25.4,0000.0,0003.29,0001.73,0001.11
2022-07-06 05:38:00,,0827.2,5.00,0.00,29.7,28.8,00.0,38.4,31.7,25.7,0000.0,0003.37,0001.75,0001.10
2022-07-06 05:39:00,,0827.2,4.99,0.00,29.8,28.6,00.0,38.4,31.8,26.3,0000.0,0003.38,0001.76,0001.10
2022-07-06 05:40:00,,0827.2,5.00,0.00,29.8,27.9,00.0,38.4,31.7,25.5,0000.0,0003.37,0001.76,0001.10
2022-07-06 05:41:00,,0827.2,5.00,0.00,29.7,27.5,00.0,38.3,31.6,26.1,0000.0,0003.37,0001.75,0001.08
2022-07-06 05:42:00,,0827.2,5.00,0.00,29.7,27.4,00.0,38.3,31.5,25.4,0000.0,0003.22,0001.69,0001.07
2022-07-06 05:43:00,,0827.2,5.00,0.00,29.6,27.5,00.0,38.3,31.4,25.6,0000.0,0002.92,0001.61,0001.05
2022-07-06 05:44:00,,0827.2,4.99,0.00,29.6,27.6,00.0,38.3,31.4,25.6,0000.0,0002.68,0001.53,0001.03
2022-07-06 05:45:00,,0827.1,4.99,0.00,29.6,27.8,00.0,38.3,31.4,25.3,0000.0,0002.47,0001.49,0001.02
2022-07-06 05:46:00,,0827.1,5.00,0.00,29.6,27.9,00.0,38.3,31.4,25.2,0000.0,0002.27,0001.42,0001.02
2022-07-06 05:47:00,,0827.1,5.00,0.00,29.6,28.0,00.0,38.4,31.5,25.5,0000.0,0002.27,0001.44,0001.02
2022-07-06 05:48:00,,0827.0,5.00,0.00,29.6,28.2,00.0,38.4,31.5,25.5,0000.0,0002.44,0001.46,0001.03
2022-07-06 05:49:00,,0827.1,4.99,0.00,29.6,28.3,00.0,38.4,31.5,26.0,0000.0,0002.45,0001.42,0001.03
2022-07-06 05:50:00,,0827.0,5.01,0.00,29.6,28.4,00.0,38.4,31.6,26.7,0000.0,0002.41,0001.41,0001.03
2022-07-06 05:51:00,,0827.1,4.99,0.00,29.7,28.5,00.0,38.4,31.6,27.0,0000.0,0002.82,0001.36,0001.02
2022-07-06 05:52:00,,0827.3,5.00,0.00,29.7,28.5,00.0,38.4,31.6,27.3,0000.0,0002.93,0001.34,0001.03
2022-07-06 05:53:00,,0827.2,5.00,0.00,29.7,28.6,00.0,38.4,31.7,27.3,0000.0,0002.89,0001.34,0001.05
2022-07-06 05:54:00,,0827.1,4.99,0.00,29.7,28.7,00.0,38.4,31.7,27.4,0000.0,0002.86,0001.35,0001.07
2022-07-06 05:55:00,,0827.0,5.00,0.00,29.8,28.7,00.0,38.5,31.7,26.3,0000.0,0002.79,0001.33,0001.07
2022-07-06 05:56:00,,0827.1,4.99,0.00,29.8,28.4,00.0,38.4,31.7,26.5,0000.0,0002.86,0001.37,0001.08
2022-07-06 05:57:00,,0827.2,5.01,0.00,29.8,27.7,00.0,38.4,31.6,26.4,0000.0,0003.01,0001.42,0001.09
2022-07-06 05:58:00,,0827.3,5.00,0.00,29.7,27.5,00.0,38.4,31.5,26.5,0000.0,0003.09,0001.41,0001.09
2022-07-06 05:59:00,,0827.0,4.99,0.00,29.7,27.5,00.0,38.4,31.4,26.6,0000.0,0002.90,0001.38,0001.08
